{"data":{"norad_id":54787,"intl_designator":"2022-175AF","name":"STARLINK-5441","alt_names":[],"object_type":"PAYLOAD","status":"ACTIVE","operator":null,"country":"US","launch_date":"2022-12-17","launch_site_code":"AFETR","launch_vehicle":null,"mission":null,"orbit_class":"UNKNOWN","rcs_meters":null,"size_class":null,"mass_kg":null,"dimensions":null,"purposes":["comms"],"wikipedia_slug":null,"has_3d_model":false,"image_url":null,"decayed_at":null,"tle_current":{"epoch":"2026-05-25T03:14:23.616384Z","epoch_age_seconds":60080,"freshness":"FRESH","line1":"1 54787U 22175AF  26145.13499556 -.00000038  00000+0  15734-4 0  9993","line2":"2 54787  53.2132  60.6629 0001355  69.2800 290.8338 15.08838676191463","mean_motion":15.08838676,"eccentricity":0.0001355,"inclination_deg":53.2132,"raan_deg":60.6629,"arg_perigee_deg":69.28,"mean_anomaly_deg":290.8338,"bstar":1.5734e-5,"rev_number":19146,"period_min":95.437638423844,"perigee_km":538.81006256432,"apogee_km":540.68480924645,"semimajor_km":6917.8844359054,"source":"CELESTRAK","updated_at":"2026-05-25T13:38:17.693792Z"}}}